カタログに戻る

STARLINK-5739

運用中通信VLEO
NORAD 55571·PAYLOAD·🇺🇸 United States

打ち上げ Feb 12, 2023 から Cape Canaveral Space Force Station

Loading…

次のパス (今後24時間)

TLE

最新Source: CelesTrak SupGP

元期: Sep 14, 2026, 21:40 UTC

1 55571C 23020C   26257.90326389  .00007756  00000+0  28091-3 0  2576
2 55571  43.0041  20.0276 0001559 277.7679 335.3057 15.27574512    15

AllMySatでSTARLINK-5739をリアルタイム追跡

Download on the App Store